CW1923 Weather Reports


Display with metric or nautical units.
time (UTC)temp
F
wind
direction
speed
MPH
gust
MPH
rain 1hr
in
rain 24hr
in
rain mn
in
humidity
%
barometer
mb
20260901235759 58 60 0.0 0.0 0.00 0.00 0.00 91 1020.7
20260901235246 58 60 0.0 0.0 0.00 0.00 0.00 91 1020.8
20260901234746 58 60 0.0 0.0 0.00 0.00 0.00 91 1020.8
20260901234247 58 60 0.0 0.0 0.00 0.00 0.00 90 1020.9
20260901233734 58 60 0.0 0.0 0.00 0.00 0.00 90 1020.8
20260901233236 58 60 0.0 0.0 0.00 0.00 0.00 90 1020.9
20260901232231 58 60 0.0 0.0 0.00 0.00 0.00 89 1020.9
20260901231733 59 60 0.0 0.0 0.00 0.00 0.00 89 1021.0
20260901231232 59 60 0.0 0.0 0.00 0.00 0.00 89 1020.9
20260901230235 59 60 0.0 0.0 0.00 0.00 0.00 89 1020.8
20260901225233 59 60 0.0 0.0 0.00 0.00 0.00 88 1020.8
20260901224732 60 60 0.0 0.0 0.00 0.00 0.00 88 1020.8
20260901224232 60 60 0.0 0.0 0.00 0.00 0.00 88 1020.8
20260901223230 60 60 0.0 0.0 0.00 0.00 0.00 88 1020.8
20260901221732 61 60 0.0 0.0 0.00 0.00 0.00 87 1020.9
20260901221232 61 60 0.0 0.0 0.00 0.00 0.00 87 1021.0
20260901220732 61 60 0.0 0.0 0.00 0.00 0.00 86 1020.9
20260901220231 61 60 0.0 0.0 0.00 0.00 0.00 86 1020.9
20260901215732 61 60 0.0 0.0 0.00 0.00 0.00 86 1021.0
20260901214732 62 60 0.0 0.0 0.00 0.00 0.00 86 1021.1
20260901214231 62 60 0.0 0.0 0.00 0.00 0.00 86 1021.1
20260901213731 62 60 0.0 0.0 0.00 0.00 0.00 86 1021.0
20260901213225 62 60 0.0 0.0 0.00 0.00 0.00 86 1021.1
20260901212724 62 60 0.0 0.0 0.00 0.00 0.00 86 1021.1
20260901212227 62 60 0.0 0.0 0.00 0.00 0.00 86 1021.3
20260901211719 62 60 0.0 0.0 0.00 0.00 0.00 86 1021.3
20260901211206 62 60 0.0 0.0 0.00 0.00 0.00 86 1021.3
20260901210706 62 60 0.0 0.0 0.00 0.00 0.00 86 1021.5
20260901210203 62 60 0.0 0.0 0.00 0.00 0.00 86 1021.4
20260901205706 62 60 0.0 0.0 0.00 0.00 0.00 86 1021.5
20260901204702 62 60 0.0 0.0 0.00 0.00 0.00 86 1021.3
20260901204206 62 60 0.0 0.0 0.00 0.00 0.00 85 1021.4
20260901203204 62 60 0.0 0.0 0.00 0.00 0.00 85 1021.3
20260901202704 62 60 0.0 0.0 0.00 0.00 0.00 85 1021.4
20260901202204 62 60 0.0 0.0 0.00 0.00 0.00 84 1021.2
20260901201704 62 60 0.0 0.0 0.00 0.00 0.00 84 1021.2
20260901201205 62 60 0.0 0.0 0.00 0.00 0.00 84 1021.1
20260901200705 63 60 0.0 0.0 0.00 0.00 0.00 84 1021.1
20260901200207 63 60 0.0 0.0 0.00 0.00 0.00 84 1021.0
20260901195704 63 60 0.0 2.0 0.00 0.00 0.00 84 1021.1
20260901195156 63 60 0.0 2.0 0.00 0.00 0.00 83 1021.1
20260901194644 63 60 0.0 0.0 0.00 0.00 0.00 83 1021.0
20260901193138 64 60 0.0 0.0 0.00 0.00 0.00 82 1020.9
20260901192131 64 60 0.0 2.0 0.00 0.00 0.00 81 1020.8
20260901191634 65 60 0.0 2.0 0.00 0.00 0.00 81 1020.7
20260901191132 65 60 0.0 0.0 0.00 0.00 0.00 81 1020.7
20260901190634 65 60 0.0 0.0 0.00 0.00 0.00 80 1020.7
20260901190132 66 60 0.0 0.0 0.00 0.00 0.00 80 1020.7
20260901185632 66 60 0.0 0.0 0.00 0.00 0.00 80 1020.7
20260901185134 66 60 0.0 0.0 0.00 0.00 0.00 79 1020.6
20260901184135 67 60 2.0 4.0 0.00 0.00 0.00 78 1020.4
20260901183630 68 60 0.0 4.0 0.00 0.00 0.00 77 1020.2
20260901183131 68 60 0.0 0.0 0.00 0.00 0.00 73 1020.3
20260901182631 68 60 0.0 0.0 0.00 0.00 0.00 72 1020.2
20260901182132 69 60 0.0 0.0 0.00 0.00 0.00 72 1020.3
20260901181633 69 60 0.0 0.0 0.00 0.00 0.00 71 1020.3
20260901181124 69 60 0.0 2.0 0.00 0.00 0.00 71 1020.4
20260901180619 69 60 0.0 2.0 0.00 0.00 0.00 70 1020.4
20260901180117 70 60 0.0 2.0 0.00 0.00 0.00 69 1020.3
20260901175614 70 60 0.0 2.0 0.00 0.00 0.00 69 1020.4
20260901175111 70 60 0.0 2.0 0.00 0.00 0.00 69 1020.4
20260901174606 70 60 0.0 2.0 0.00 0.00 0.00 68 1020.4
20260901173104 71 60 0.0 4.0 0.00 0.00 0.00 67 1020.4
20260901172605 71 60 0.0 4.0 0.00 0.00 0.00 67 1020.4
20260901171606 71 60 0.0 2.0 0.00 0.00 0.00 67 1020.2
20260901170603 72 60 0.0 2.0 0.00 0.00 0.00 66 1020.3
20260901170105 72 60 0.0 2.0 0.00 0.00 0.00 66 1020.2
20260901165544 72 60 0.0 4.0 0.00 0.00 0.00 65 1020.3
20260901164540 73 60 2.0 5.0 0.00 0.00 0.00 65 1020.3
20260901164037 73 60 2.0 5.0 0.00 0.00 0.00 64 1020.2
20260901163538 74 334 2.0 9.0 0.00 0.00 0.00 63 1020.2
20260901163037 74 71 2.0 9.0 0.00 0.00 0.00 62 1020.2
20260901162534 74 261 4.0 12.0 0.00 0.00 0.00 60 1020.2
20260901162035 74 257 4.0 12.0 0.00 0.00 0.00 58 1020.1
20260901161532 74 234 5.0 16.0 0.00 0.00 0.00 59 1020.1
20260901161035 74 228 5.0 16.0 0.00 0.00 0.00 59 1020.2
20260901160535 74 280 4.0 12.0 0.00 0.00 0.00 61 1020.1
20260901160033 74 274 4.0 12.0 0.00 0.00 0.00 61 1020.2
20260901155532 74 262 2.0 12.0 0.00 0.00 0.00 61 1020.1
20260901154536 73 277 2.0 11.0 0.00 0.00 0.00 62 1020.1
20260901154035 73 284 2.0 11.0 0.00 0.00 0.00 61 1020.2
20260901153532 74 269 4.0 9.0 0.00 0.00 0.00 62 1020.2
20260901153030 73 322 4.0 9.0 0.00 0.00 0.00 62 1020.1
20260901152532 73 253 4.0 14.0 0.00 0.00 0.00 62 1020.1
20260901152031 72 216 4.0 14.0 0.00 0.00 0.00 62 1020.3
20260901151533 73 66 5.0 16.0 0.00 0.00 0.00 61 1020.1
20260901150532 75 270 2.0 12.0 0.00 0.00 0.00 61 1020.2
20260901150033 74 275 4.0 16.0 0.00 0.00 0.00 62 1020.2
20260901145533 74 304 2.0 16.0 0.00 0.00 0.00 63 1020.3
20260901145033 73 301 4.0 11.0 0.00 0.00 0.00 65 1020.3
20260901144525 72 270 4.0 18.0 0.00 0.00 0.00 66 1020.3
20260901144024 72 285 4.0 18.0 0.00 0.00 0.00 65 1020.3
20260901143021 73 270 2.0 9.0 0.00 0.00 0.00 64 1020.3
20260901142022 72 70 4.0 14.0 0.00 0.00 0.00 66 1020.2
20260901141518 72 271 4.0 14.0 0.00 0.00 0.00 66 1020.3
20260901141021 72 289 4.0 14.0 0.00 0.01 0.00 65 1020.4
20260901140518 73 332 4.0 14.0 0.00 0.01 0.00 64 1020.3
20260901135520 74 6 2.0 9.0 0.00 0.01 0.00 64 1020.4
20260901135016 72 285 2.0 9.0 0.00 0.01 0.00 65 1020.4
20260901134512 73 85 2.0 7.0 0.00 0.01 0.00 66 1020.4
20260901134009 73 83 4.0 11.0 0.00 0.01 0.00 65 1020.4
20260901133511 73 153 4.0 11.0 0.00 0.01 0.00 65 1020.4
20260901133011 73 200 4.0 18.0 0.00 0.01 0.00 64 1020.4
20260901132504 73 320 5.0 18.0 0.00 0.01 0.00 65 1020.4
20260901132002 72 321 4.0 14.0 0.00 0.01 0.00 66 1020.6
20260901131503 72 244 2.0 12.0 0.00 0.01 0.00 66 1020.6
20260901131005 73 275 0.0 12.0 0.00 0.01 0.00 66 1020.6
20260901130002 74 279 0.0 5.0 0.00 0.01 0.00 63 1020.6
20260901125502 75 72 2.0 5.0 0.00 0.01 0.00 62 1020.5
20260901123958 73 80 2.0 5.0 0.00 0.01 0.00 66 1020.7
20260901123456 73 80 2.0 5.0 0.00 0.01 0.00 65 1020.6
20260901123000 73 80 2.0 5.0 0.00 0.01 0.00 66 1020.7
20260901122458 72 299 2.0 4.0 0.00 0.01 0.00 68 1020.7
20260901121955 70 299 2.0 5.0 0.00 0.01 0.00 70 1020.6
20260901120944 71 280 5.0 16.0 0.00 0.01 0.00 69 1020.6
20260901115441 72 295 7.0 16.0 0.00 0.01 0.00 71 1020.6
20260901114436 74 264 5.0 16.0 0.00 0.01 0.00 68 1020.6
20260901113936 74 172 4.0 11.0 0.00 0.01 0.00 67 1020.3
20260901113433 74 214 4.0 11.0 0.00 0.01 0.00 68 1020.6
20260901112934 73 272 5.0 14.0 0.00 0.01 0.00 70 1020.6
20260901112433 72 299 5.0 16.0 0.00 0.01 0.00 72 1020.7
20260901111932 72 147 4.0 16.0 0.00 0.01 0.00 70 1020.7
20260901111432 73 341 5.0 16.0 0.00 0.01 0.00 70 1020.6
20260901110939 72 175 5.0 16.0 0.00 0.02 0.00 70 1020.7
20260901110430 72 112 4.0 14.0 0.00 0.02 0.00 70 1020.7
20260901105932 72 359 5.0 16.0 0.00 0.03 0.00 71 1020.7
20260901105432 72 139 5.0 16.0 0.00 0.04 0.00 71 1020.7
20260901104931 71 131 5.0 22.0 0.00 0.04 0.00 71 1020.7
20260901104432 71 291 7.0 22.0 0.00 0.04 0.00 70 1020.7
20260901103932 72 43 4.0 20.0 0.00 0.04 0.00 69 1020.6
20260901103430 72 288 4.0 12.0 0.00 0.04 0.00 71 1020.7
20260901102432 72 255 2.0 5.0 0.00 0.04 0.00 73 1020.7
20260901101931 71 255 2.0 12.0 0.00 0.04 0.00 75 1020.8
20260901101441 70 250 2.0 12.0 0.00 0.04 0.00 77 1020.8
20260901100933 69 297 2.0 7.0 0.00 0.04 0.00 75 1020.7
20260901100432 69 287 4.0 11.0 0.00 0.04 0.00 75 1020.8
20260901095933 69 282 4.0 11.0 0.00 0.04 0.00 75 1020.8
20260901095430 70 271 2.0 12.0 0.00 0.04 0.00 77 1020.9
20260901094931 69 290 2.0 12.0 0.00 0.05 0.00 78 1020.9
20260901094431 68 261 0.0 5.0 0.00 0.09 0.00 80 1020.9
20260901093428 68 287 4.0 11.0 0.00 0.09 0.00 80 1020.9
20260901092927 68 297 4.0 11.0 0.00 0.09 0.00 81 1020.7
20260901092429 68 281 4.0 12.0 0.00 0.09 0.00 81 1020.7
20260901091928 69 298 4.0 12.0 0.00 0.09 0.00 81 1020.7
20260901090932 68 332 4.0 11.0 0.00 0.09 0.00 85 1020.8
20260901085927 66 284 4.0 11.0 0.00 0.09 0.00 87 1020.7
20260901085424 66 289 4.0 11.0 0.00 0.09 0.00 87 1020.7
20260901084926 66 323 4.0 11.0 0.00 0.09 0.00 88 1020.7
20260901083925 65 356 2.0 12.0 0.00 0.09 0.00 90 1020.7
20260901083424 64 284 4.0 12.0 0.00 0.09 0.00 90 1020.6
20260901082924 64 310 4.0 12.0 0.00 0.09 0.00 91 1020.5
20260901082416 64 293 4.0 14.0 0.00 0.09 0.00 91 1020.5
20260901081919 64 299 4.0 14.0 0.00 0.09 0.00 91 1020.4
20260901081417 64 288 4.0 12.0 0.00 0.09 0.00 91 1020.3
20260901080916 64 282 4.0 11.0 0.00 0.09 0.00 92 1020.3
20260901080419 64 276 4.0 11.0 0.00 0.09 0.00 92 1020.2
20260901075917 63 280 4.0 12.0 0.00 0.09 0.00 93 1020.2
20260901075414 63 313 4.0 12.0 0.00 0.09 0.00 93 1020.2
20260901074914 63 294 4.0 11.0 0.00 0.09 0.00 93 1020.2
20260901074415 63 280 5.0 11.0 0.00 0.09 0.00 93 1020.0
20260901073915 63 289 5.0 12.0 0.00 0.09 0.00 93 1020.0
20260901073410 63 291 4.0 12.0 0.00 0.09 0.00 94 1019.9
20260901072914 63 277 2.0 9.0 0.00 0.09 0.00 94 1019.9
20260901072415 63 289 2.0 7.0 0.00 0.09 0.00 94 1019.8
20260901071407 62 298 2.0 5.0 0.00 0.09 0.00 95 1019.7
20260901070907 62 306 2.0 12.0 0.00 0.09 0.00 95 1019.7
20260901070403 62 288 4.0 12.0 0.00 0.09 0.00 94 1019.6
20260901065905 62 289 5.0 12.0 0.00 0.09 0.00 95 1019.8
20260901065406 62 230 5.0 12.0 0.00 0.09 0.00 95 1019.8
20260901064904 62 294 4.0 14.0 0.00 0.09 0.00 95 1019.7
20260901063903 62 282 4.0 12.0 0.00 0.09 0.00 96 1019.6
20260901063356 62 295 4.0 12.0 0.00 0.09 0.00 96 1019.5
20260901062854 62 284 4.0 12.0 0.00 0.09 0.00 96 1019.5
20260901062353 62 287 2.0 7.0 0.00 0.09 0.00 96 1019.4
20260901061852 61 240 0.0 7.0 0.00 0.09 0.00 96 1019.3
20260901061353 61 202 0.0 5.0 0.00 0.09 0.00 96 1019.3
20260901060843 61 195 0.0 5.0 0.00 0.09 0.00 96 1019.3
20260901060339 61 251 0.0 4.0 0.00 0.09 0.00 96 1019.2
20260901055837 61 250 0.0 4.0 0.00 0.09 0.00 96 1019.2
20260901055338 61 250 0.0 4.0 0.00 0.09 0.00 96 1019.1
20260901054835 61 248 0.0 4.0 0.00 0.09 0.00 96 1019.1
20260901054336 61 244 0.0 5.0 0.00 0.09 0.00 96 1019.1
20260901053832 60 244 0.0 5.0 0.00 0.09 0.00 96 1019.1
20260901053335 60 243 0.0 2.0 0.00 0.09 0.00 96 1018.9
20260901052833 60 243 0.0 4.0 0.00 0.09 0.00 96 1019.1
20260901052333 60 243 0.0 4.0 0.00 0.09 0.00 96 1019.0
20260901051831 60 237 0.0 2.0 0.00 0.09 0.00 96 1019.0
20260901051329 60 237 0.0 4.0 0.00 0.09 0.00 96 1019.0
20260901050823 60 237 0.0 4.0 0.00 0.09 0.00 96 1018.9
20260901050314 60 237 0.0 4.0 0.00 0.09 0.00 96 1018.9
20260901045809 60 237 0.0 4.0 0.00 0.09 0.00 96 1019.0
20260901045307 60 237 0.0 4.0 0.00 0.09 0.00 95 1018.9
20260901044821 60 237 0.0 4.0 0.00 0.09 0.00 95 1018.9
20260901044304 60 272 0.0 4.0 0.00 0.09 0.00 95 1018.7
20260901043808 60 274 0.0 2.0 0.00 0.09 0.00 95 1018.8
20260901043307 60 290 0.0 0.0 0.00 0.09 0.00 95 1018.6
20260901042804 60 290 0.0 2.0 0.00 0.09 0.00 95 1018.5
20260901042306 60 301 0.0 2.0 0.00 0.09 0.00 95 1018.5
20260901041754 60 301 0.0 4.0 0.00 0.09 0.00 95 1018.5
20260901041250 60 301 0.0 4.0 0.00 0.09 0.00 95 1018.5
20260901040104 60 301 0.0 4.0 0.00 0.09 0.00 95 1018.5
20260901035601 60 301 0.0 4.0 0.00 0.09 0.00 95 1018.5
20260901035047 60 301 0.0 4.0 0.00 0.09 0.00 94 1018.4
20260901034534 60 301 0.0 4.0 0.00 0.09 0.00 94 1018.3
20260901034032 60 302 0.0 7.0 0.00 0.09 0.00 94 1018.4
20260901033531 60 304 0.0 7.0 0.00 0.09 0.00 94 1018.4
20260901032522 60 297 0.0 0.0 0.00 0.09 0.00 94 1018.3
20260901031518 60 297 0.0 0.0 0.00 0.09 0.00 94 1018.4
20260901031018 60 297 0.0 0.0 0.00 0.09 0.00 94 1018.3
20260901030515 60 297 0.0 0.0 0.00 0.09 0.00 94 1018.3
20260901030014 61 297 0.0 0.0 0.00 0.09 0.00 94 1018.3
20260901025506 61 297 0.0 0.0 0.00 0.09 0.00 94 1018.3
20260901024504 61 297 0.0 0.0 0.00 0.09 0.00 94 1018.2
20260901024007 61 297 0.0 0.0 0.00 0.09 0.00 94 1018.2
20260901023003 61 297 0.0 2.0 0.00 0.09 0.00 93 1018.2
20260901022004 61 297 0.0 7.0 0.00 0.09 0.00 93 1018.4
20260901021505 61 297 0.0 7.0 0.00 0.09 0.00 93 1018.3
20260901021005 61 286 0.0 4.0 0.00 0.09 0.00 93 1018.2
20260901020504 61 286 2.0 7.0 0.00 0.09 0.00 93 1018.3
20260901020006 62 284 2.0 7.0 0.00 0.09 0.00 93 1018.3
20260901015505 62 273 2.0 7.0 0.00 0.09 0.00 93 1018.3
20260901015004 61 295 2.0 11.0 0.00 0.09 0.00 93 1018.4
20260901014505 61 306 4.0 12.0 0.00 0.09 0.00 93 1018.3
20260901013006 61 305 2.0 7.0 0.00 0.09 0.00 93 1018.5
20260901012506 61 314 0.0 7.0 0.00 0.09 0.00 93 1018.4
20260901012007 61 316 2.0 7.0 0.00 0.09 0.00 93 1018.4
20260901011505 61 328 2.0 7.0 0.00 0.09 0.00 93 1018.3
20260901011004 61 298 2.0 4.0 0.00 0.09 0.00 93 1018.3
20260901010504 61 300 0.0 11.0 0.00 0.09 0.00 92 1018.2
20260901010004 61 295 0.0 11.0 0.00 0.09 0.00 92 1018.2
20260901005505 61 323 0.0 5.0 0.00 0.09 0.00 92 1018.3
20260901004955 61 315 0.0 5.0 0.00 0.09 0.00 92 1018.3
20260901004456 61 309 0.0 5.0 0.00 0.09 0.00 92 1018.1
20260901003956 61 294 0.0 4.0 0.00 0.09 0.00 92 1018.2
20260901003452 62 294 2.0 11.0 0.00 0.09 0.00 92 1018.2
20260901002949 62 292 2.0 11.0 0.00 0.09 0.00 92 1018.2
20260901002450 62 284 4.0 7.0 0.00 0.09 0.00 91 1018.1
20260901001944 62 281 2.0 7.0 0.00 0.09 0.00 91 1018.2
20260901001444 62 293 2.0 7.0 0.00 0.09 0.00 91 1018.0
20260901000436 62 303 2.0 5.0 0.00 0.10 0.00 91 1018.0